Location: Prairie State College
(41.5244°N, 87.6382°W)
Time: 10:39:46
(UTC-05:00)

MSX - Visible Passes

Search period start: 18 September 2014 00:00
Search period end: 28 September 2014 00:00
Orbit: 897 x 904 km, 98.8° (Epoch: 12 September)

Date Brightness Start Highest point End Pass type
(mag) Time Alt. Az. Time Alt. Az. Time Alt. Az.
18 Sep 5.2 19:14:29 10° ESE 19:18:24 19° ENE 19:22:20 10° NNE visible
18 Sep 4.1 20:55:12 18° S 20:59:33 67° WSW 21:05:18 10° NNW visible
19 Sep 5.2 19:17:08 10° ESE 19:21:12 20° ENE 19:25:16 10° NNE visible
19 Sep 4.2 20:58:13 19° S 21:02:23 63° WSW 21:08:07 10° NNW visible
20 Sep 5.1 19:19:48 10° ESE 19:23:59 21° ENE 19:28:11 10° NNE visible
20 Sep 4.3 21:01:15 20° S 21:05:13 60° W 21:10:56 10° NNW visible
21 Sep 5.0 19:22:28 10° ESE 19:26:47 22° ENE 19:31:06 10° NNE visible
21 Sep 4.4 21:04:16 21° S 21:08:03 56° W 21:13:44 10° NNW visible
22 Sep 5.0 19:25:08 10° ESE 19:29:34 24° ENE 19:34:01 10° NNE visible
22 Sep 4.5 21:07:18 22° S 21:10:54 53° W 21:16:33 10° NNW visible
23 Sep 4.9 19:27:49 10° ESE 19:32:22 25° ENE 19:36:56 10° N visible
23 Sep 4.5 21:10:20 23° SSW 21:13:44 50° W 21:19:21 10° NNW visible
24 Sep 4.8 19:30:30 10° ESE 19:35:10 26° ENE 19:39:50 10° N visible
24 Sep 4.6 21:13:22 24° SSW 21:16:34 47° W 21:22:08 10° NNW visible
25 Sep 4.8 19:33:19 11° ESE 19:37:57 28° ENE 19:42:43 10° N visible
25 Sep 4.7 21:16:24 25° SSW 21:19:25 45° W 21:24:56 10° NNW visible
26 Sep 4.7 19:36:21 12° ESE 19:40:45 29° ENE 19:45:37 10° N visible
26 Sep 4.8 21:19:26 25° SSW 21:22:15 42° W 21:27:43 10° NNW visible
27 Sep 4.6 19:39:23 14° ESE 19:43:33 31° ENE 19:48:30 10° N visible
27 Sep 4.9 21:22:28 26° SSW 21:25:06 40° W 21:30:30 10° NNW visible
